Hourly Weather Bolshie Malosheviny

Today, 16 June, Wednesday

Time Temperature Precipitation Wind Pressure Humidity
00:00 +15°C° 0 mm 2 mps 744 mmHg 89%
01:00 +14°C° 0 mm 2 mps 744 mmHg 91%
02:00 +14°C° 0 mm 2 mps 745 mmHg 93%
03:00 +14°C° 0 mm 2 mps 745 mmHg 90%
04:00 +14°C° 0 mm 2 mps 745 mmHg 86%
05:00 +14°C° 0 mm 2 mps 746 mmHg 83%
06:00 +16°C° 0 mm 2 mps 746 mmHg 70%
07:00 +17°C° 0 mm 3 mps 746 mmHg 58%
08:00 +19°C° 0 mm 3 mps 747 mmHg 46%
09:00 +20°C° 0 mm 3 mps 747 mmHg 42%
10:00 +21°C° 0 mm 3 mps 747 mmHg 38%
11:00 +22°C° 0 mm 4 mps 747 mmHg 34%
12:00 +22°C° 0 mm 4 mps 748 mmHg 33%
13:00 +22°C° 0 mm 4 mps 748 mmHg 32%
14:00 +23°C° 0 mm 4 mps 748 mmHg 31%
15:00 +22°C° 0 mm 3 mps 748 mmHg 34%
16:00 +22°C° 0 mm 3 mps 748 mmHg 37%
17:00 +22°C° 0 mm 3 mps 748 mmHg 40%
18:00 +20°C° 0 mm 2 mps 749 mmHg 48%
19:00 +18°C° 0 mm 2 mps 749 mmHg 56%
20:00 +16°C° 0 mm 2 mps 749 mmHg 65%
21:00 +14°C° 0 mm 1 mps 750 mmHg 67%
22:00 +13°C° 0 mm 1 mps 750 mmHg 68%
23:00 +12°C° 0 mm 1 mps 751 mmHg 70%

Tomorrow, 17 June, Thursday

Time Temperature Precipitation Wind Pressure Humidity
00:00 +12°C° 0 mm 1 mps 751 mmHg 71%
01:00 +11°C° 0 mm 1 mps 751 mmHg 72%
02:00 +11°C° 0 mm 1 mps 752 mmHg 73%
03:00 +12°C° 0 mm 1 mps 752 mmHg 72%
04:00 +13°C° 0 mm 1 mps 752 mmHg 71%
05:00 +14°C° 0 mm 1 mps 752 mmHg 69%
06:00 +16°C° 0 mm 1 mps 753 mmHg 62%
07:00 +18°C° 0 mm 2 mps 753 mmHg 54%
08:00 +20°C° 0 mm 2 mps 753 mmHg 47%
09:00 +23°C° 0 mm 2 mps 753 mmHg 43%
10:00 +24°C° 0 mm 3 mps 753 mmHg 39%
11:00 +25°C° 0 mm 3 mps 753 mmHg 36%
12:00 +25°C° 0 mm 3 mps 753 mmHg 35%
13:00 +26°C° 0 mm 3 mps 753 mmHg 33%
14:00 +26°C° 0 mm 3 mps 753 mmHg 32%
15:00 +26°C° 0 mm 3 mps 753 mmHg 35%
16:00 +26°C° 0 mm 3 mps 753 mmHg 38%
17:00 +25°C° 0 mm 3 mps 753 mmHg 41%
18:00 +23°C° 0 mm 2 mps 754 mmHg 50%
19:00 +20°C° 0 mm 2 mps 754 mmHg 59%
20:00 +19°C° 0 mm 1 mps 754 mmHg 68%
21:00 +18°C° 0 mm 1 mps 754 mmHg 70%
22:00 +16°C° 0 mm 1 mps 754 mmHg 72%
23:00 +15°C° 0 mm 1 mps 755 mmHg 73%

Day after tomorrow, 18 June, Friday

Time Temperature Precipitation Wind Pressure Humidity
00:00 +15°C° 0 mm 1 mps 755 mmHg 74%
01:00 +14°C° 0 mm 1 mps 755 mmHg 75%
02:00 +14°C° 0 mm 1 mps 755 mmHg 76%
03:00 +15°C° 0 mm 1 mps 755 mmHg 75%
04:00 +16°C° 0 mm 1 mps 755 mmHg 74%
05:00 +16°C° 0 mm 1 mps 755 mmHg 73%
06:00 +20°C° 0 mm 1 mps 755 mmHg 65%
07:00 +22°C° 0 mm 1 mps 755 mmHg 57%
08:00 +24°C° 0 mm 2 mps 755 mmHg 50%
09:00 +25°C° 0 mm 2 mps 755 mmHg 46%
10:00 +27°C° 0 mm 2 mps 755 mmHg 42%
11:00 +28°C° 0 mm 2 mps 755 mmHg 38%
12:00 +28°C° 0 mm 3 mps 755 mmHg 36%
13:00 +29°C° 0 mm 3 mps 754 mmHg 34%
14:00 +30°C° 0 mm 3 mps 754 mmHg 33%
15:00 +30°C° 0 mm 3 mps 754 mmHg 35%
16:00 +29°C° 0 mm 3 mps 754 mmHg 38%
17:00 +29°C° 0 mm 3 mps 753 mmHg 40%
18:00 +27°C° 0 mm 2 mps 753 mmHg 50%
19:00 +24°C° 0 mm 2 mps 753 mmHg 60%
20:00 +21°C° 0 mm 2 mps 753 mmHg 70%
21:00 +20°C° 0 mm 2 mps 753 mmHg 73%
22:00 +19°C° 0 mm 2 mps 754 mmHg 76%
23:00 +18°C° 0 mm 2 mps 754 mmHg 79%

19 June, Saturday

Time Temperature Precipitation Wind Pressure Humidity
00:00 +18°C° 0 mm 2 mps 754 mmHg 81%
01:00 +17°C° 0 mm 2 mps 754 mmHg 82%
02:00 +17°C° 0 mm 2 mps 754 mmHg 83%
03:00 +17°C° 0 mm 2 mps 754 mmHg 82%
04:00 +18°C° 0 mm 2 mps 754 mmHg 81%
05:00 +19°C° 0 mm 2 mps 755 mmHg 79%
06:00 +21°C° 0 mm 3 mps 755 mmHg 72%
07:00 +24°C° 0 mm 3 mps 755 mmHg 64%
08:00 +26°C° 0 mm 3 mps 755 mmHg 57%
09:00 +27°C° 0 mm 3 mps 755 mmHg 51%
10:00 +28°C° 0 mm 3 mps 755 mmHg 46%
11:00 +29°C° 0 mm 3 mps 754 mmHg 40%
12:00 +30°C° 0 mm 3 mps 754 mmHg 39%
13:00 +31°C° 0 mm 3 mps 754 mmHg 37%
14:00 +31°C° 0 mm 3 mps 754 mmHg 35%
15:00 +31°C° 0 mm 3 mps 753 mmHg 37%
16:00 +31°C° 0 mm 2 mps 753 mmHg 39%
17:00 +30°C° 0 mm 2 mps 753 mmHg 42%
18:00 +28°C° 0 mm 2 mps 753 mmHg 51%
19:00 +26°C° 0 mm 2 mps 753 mmHg 60%
20:00 +24°C° 0 mm 1 mps 753 mmHg 70%
21:00 +22°C° 0 mm 1 mps 753 mmHg 71%
22:00 +21°C° 0 mm 1 mps 753 mmHg 73%
23:00 +20°C° 0 mm 1 mps 753 mmHg 75%

20 June, Sunday

Time Temperature Precipitation Wind Pressure Humidity
00:00 +20°C° 0 mm 1 mps 754 mmHg 77%
01:00 +19°C° 0 mm 1 mps 754 mmHg 79%
02:00 +19°C° 0 mm 1 mps 754 mmHg 81%
03:00 +19°C° 0 mm 1 mps 754 mmHg 80%
04:00 +20°C° 0 mm 1 mps 754 mmHg 79%
05:00 +21°C° 0 mm 1 mps 754 mmHg 79%
06:00 +23°C° 0 mm 2 mps 754 mmHg 71%
07:00 +25°C° 0 mm 2 mps 754 mmHg 64%
08:00 +27°C° 0 mm 2 mps 754 mmHg 56%
09:00 +28°C° 0 mm 2 mps 753 mmHg 51%
10:00 +29°C° 0 mm 3 mps 753 mmHg 46%
11:00 +30°C° 0 mm 3 mps 753 mmHg 41%
12:00 +31°C° 0 mm 3 mps 752 mmHg 38%
13:00 +31°C° 0 mm 3 mps 752 mmHg 36%
14:00 +33°C° 0 mm 3 mps 752 mmHg 33%
15:00 +31°C° 0 mm 3 mps 752 mmHg 35%
16:00 +31°C° 0 mm 3 mps 751 mmHg 37%
17:00 +31°C° 0 mm 2 mps 751 mmHg 39%
18:00 +28°C° 0 mm 2 mps 751 mmHg 49%
19:00 +26°C° 0 mm 2 mps 751 mmHg 58%
20:00 +24°C° 0 mm 2 mps 751 mmHg 68%
21:00 +21°C° 0 mm 2 mps 751 mmHg 72%
22:00 +20°C° 0 mm 2 mps 751 mmHg 75%
23:00 +20°C° 0 mm 1 mps 751 mmHg 79%

21 June, Monday

Time Temperature Precipitation Wind Pressure Humidity
00:00 +20°C° 0 mm 1 mps 751 mmHg 80%
01:00 +19°C° 0 mm 1 mps 751 mmHg 81%
02:00 +19°C° 0 mm 1 mps 751 mmHg 82%
03:00 +20°C° 0 mm 1 mps 752 mmHg 80%
04:00 +20°C° 0 mm 1 mps 752 mmHg 79%
05:00 +21°C° 0 mm 1 mps 752 mmHg 77%
06:00 +23°C° 0 mm 1 mps 752 mmHg 69%
07:00 +25°C° 0 mm 2 mps 752 mmHg 62%
08:00 +27°C° 0 mm 2 mps 752 mmHg 54%
09:00 +28°C° 0 mm 2 mps 751 mmHg 49%
10:00 +30°C° 0 mm 2 mps 751 mmHg 45%
11:00 +31°C° 0 mm 2 mps 751 mmHg 40%
12:00 +32°C° 0 mm 2 mps 751 mmHg 37%
13:00 +32°C° 0 mm 2 mps 751 mmHg 35%
14:00 +34°C° 0 mm 2 mps 750 mmHg 32%
15:00 +32°C° 0 mm 2 mps 750 mmHg 36%
16:00 +32°C° 0 mm 2 mps 750 mmHg 39%
17:00 +31°C° 0 mm 2 mps 750 mmHg 43%
18:00 +29°C° 0 mm 2 mps 750 mmHg 52%
19:00 +27°C° 0 mm 2 mps 750 mmHg 61%
20:00 +24°C° 0 mm 2 mps 750 mmHg 71%
21:00 +23°C° 0 mm 2 mps 750 mmHg 77%
22:00 +21°C° 0 mm 2 mps 751 mmHg 83%
23:00 +20°C° 0 mm 1 mps 751 mmHg 90%
Show more